Retour au catalogue

CZ-2D R/B

ActifSSO
NORAD 54030·ROCKET BODY·🇨🇳 China

Lancé Oct 8, 2022 depuis Jiuquan Satellite Launch Center

Loading…

Prochains Passages (prochaines 24 heures)

TLE

FraisSource: Space-Track

Époque: Sep 14, 2026, 10:55 UTC

1 54030U 22129B   26257.45488702  .00000217  00000-0  58612-4 0  9994
2 54030  98.2169 259.2658 0017555 352.1075   7.9845 14.56852214209004

Suivez CZ-2D R/B en temps réel avec AllMySat

Download on the App Store